<?xml version="1.0" encoding="UTF-8" standalone="no" ?>
<gpx xmlns="http://www.topografix.com/GPX/1/1" xmlns:xsi="http://www.w3.org/2001/XMLSchema-instance" xsi:schemaLocation="http://www.topografix.com/GPX/1/1 http://www.topografix.com/GPX/1/1/gpx.xsd" version="1.1" creator="VisuGPX - https://www.visugpx.com">
  <metadata>
    <name>2ème étape PLM 2016 : Corny - Jumiège (plus Forts)</name>
    <desc><![CDATA[PLM 2016 : 2ème étape Corny - Jumiège (Parcourt pour les plus)]]></desc>
  </metadata>
  <trk>
    <name><![CDATA[--Corny-- OR-5527598:2ème étape : Pontoise - Deauville 2016]]></name>
    <trkseg>
      <trkpt lat="49.28335" lon="1.45769">
        <ele>140</ele>
        <time>2016-02-29T16:16:11Z</time>
      </trkpt>
      <trkpt lat="49.28317" lon="1.45569">
        <ele>139</ele>
        <time>2016-02-29T16:18:11Z</time>
      </trkpt>
      <trkpt lat="49.28404" lon="1.45505">
        <ele>140</ele>
        <time>2016-02-29T16:20:11Z</time>
      </trkpt>
      <trkpt lat="49.28427" lon="1.4544">
        <ele>138</ele>
        <time>2016-02-29T16:22:11Z</time>
      </trkpt>
      <trkpt lat="49.28446" lon="1.45264">
        <ele>140</ele>
        <time>2016-02-29T16:24:11Z</time>
      </trkpt>
      <trkpt lat="49.28429" lon="1.44835">
        <ele>116</ele>
        <time>2016-02-29T16:26:11Z</time>
      </trkpt>
      <trkpt lat="49.28424" lon="1.44737">
        <ele>102</ele>
        <time>2016-02-29T16:28:11Z</time>
      </trkpt>
      <trkpt lat="49.28427" lon="1.44578">
        <ele>86</ele>
        <time>2016-02-29T16:30:11Z</time>
      </trkpt>
      <trkpt lat="49.2841" lon="1.44518">
        <ele>80</ele>
        <time>2016-02-29T16:32:11Z</time>
      </trkpt>
      <trkpt lat="49.28399" lon="1.4444">
        <ele>77</ele>
        <time>2016-02-29T16:34:11Z</time>
      </trkpt>
      <trkpt lat="49.28354" lon="1.44363">
        <ele>78</ele>
        <time>2016-02-29T16:36:11Z</time>
      </trkpt>
      <trkpt lat="49.28284" lon="1.44101">
        <ele>92</ele>
        <time>2016-02-29T16:38:11Z</time>
      </trkpt>
      <trkpt lat="49.28303" lon="1.4405">
        <ele>94</ele>
        <time>2016-02-29T16:40:11Z</time>
      </trkpt>
      <trkpt lat="49.28407" lon="1.44003">
        <ele>98</ele>
        <time>2016-02-29T16:42:11Z</time>
      </trkpt>
      <trkpt lat="49.2846" lon="1.43891">
        <ele>108</ele>
        <time>2016-02-29T16:44:11Z</time>
      </trkpt>
      <trkpt lat="49.28553" lon="1.43844">
        <ele>114</ele>
        <time>2016-02-29T16:46:11Z</time>
      </trkpt>
      <trkpt lat="49.28617" lon="1.43831">
        <ele>118</ele>
        <time>2016-02-29T16:48:11Z</time>
      </trkpt>
      <trkpt lat="49.28639" lon="1.4378">
        <ele>123</ele>
        <time>2016-02-29T16:50:11Z</time>
      </trkpt>
      <trkpt lat="49.28569" lon="1.43741">
        <ele>125</ele>
        <time>2016-02-29T16:52:11Z</time>
      </trkpt>
      <trkpt lat="49.28511" lon="1.43634">
        <ele>127</ele>
        <time>2016-02-29T16:54:11Z</time>
      </trkpt>
      <trkpt lat="49.28625" lon="1.43089">
        <ele>133</ele>
        <time>2016-02-29T16:56:11Z</time>
      </trkpt>
      <trkpt lat="49.28631" lon="1.42981">
        <ele>132</ele>
        <time>2016-02-29T16:58:11Z</time>
      </trkpt>
      <trkpt lat="49.28726" lon="1.42685">
        <ele>137</ele>
        <time>2016-02-29T17:00:11Z</time>
      </trkpt>
      <trkpt lat="49.2886" lon="1.41947">
        <ele>137</ele>
        <time>2016-02-29T17:02:11Z</time>
      </trkpt>
      <trkpt lat="49.289" lon="1.41775">
        <ele>139</ele>
        <time>2016-02-29T17:04:11Z</time>
      </trkpt>
      <trkpt lat="49.28998" lon="1.41578">
        <ele>142</ele>
        <time>2016-02-29T17:06:11Z</time>
      </trkpt>
      <trkpt lat="49.28844" lon="1.41398">
        <ele>140</ele>
        <time>2016-02-29T17:08:11Z</time>
      </trkpt>
      <trkpt lat="49.28748" lon="1.41153">
        <ele>139</ele>
        <time>2016-02-29T17:10:11Z</time>
      </trkpt>
      <trkpt lat="49.28726" lon="1.41029">
        <ele>140</ele>
        <time>2016-02-29T17:12:11Z</time>
      </trkpt>
      <trkpt lat="49.28659" lon="1.40879">
        <ele>140</ele>
        <time>2016-02-29T17:14:11Z</time>
      </trkpt>
      <trkpt lat="49.28695" lon="1.40801">
        <ele>141</ele>
        <time>2016-02-29T17:16:11Z</time>
      </trkpt>
      <trkpt lat="49.28838" lon="1.4066">
        <ele>144</ele>
        <time>2016-02-29T17:18:11Z</time>
      </trkpt>
      <trkpt lat="49.28723" lon="1.40488">
        <ele>141</ele>
        <time>2016-02-29T17:20:11Z</time>
      </trkpt>
      <trkpt lat="49.28734" lon="1.40351">
        <ele>137</ele>
        <time>2016-02-29T17:22:11Z</time>
      </trkpt>
      <trkpt lat="49.28802" lon="1.40222">
        <ele>137</ele>
        <time>2016-02-29T17:24:11Z</time>
      </trkpt>
      <trkpt lat="49.28679" lon="1.40235">
        <ele>136</ele>
        <time>2016-02-29T17:26:11Z</time>
      </trkpt>
      <trkpt lat="49.28804" lon="1.3996">
        <ele>141</ele>
        <time>2016-02-29T17:28:11Z</time>
      </trkpt>
      <trkpt lat="49.29168" lon="1.39578">
        <ele>144</ele>
        <time>2016-02-29T17:30:11Z</time>
      </trkpt>
      <trkpt lat="49.29028" lon="1.39316">
        <ele>147</ele>
        <time>2016-02-29T17:32:11Z</time>
      </trkpt>
      <trkpt lat="49.29019" lon="1.39207">
        <ele>149</ele>
        <time>2016-02-29T17:34:11Z</time>
      </trkpt>
      <trkpt lat="49.29689" lon="1.3875">
        <ele>140</ele>
        <time>2016-02-29T17:36:11Z</time>
      </trkpt>
      <trkpt lat="49.29751" lon="1.38602">
        <ele>138</ele>
        <time>2016-02-29T17:38:11Z</time>
      </trkpt>
      <trkpt lat="49.29781" lon="1.38471">
        <ele>137</ele>
        <time>2016-02-29T17:40:11Z</time>
      </trkpt>
      <trkpt lat="49.29823" lon="1.38286">
        <ele>139</ele>
        <time>2016-02-29T17:42:11Z</time>
      </trkpt>
      <trkpt lat="49.29829" lon="1.38209">
        <ele>139</ele>
        <time>2016-02-29T17:44:11Z</time>
      </trkpt>
      <trkpt lat="49.29833" lon="1.38087">
        <ele>139</ele>
        <time>2016-02-29T17:46:11Z</time>
      </trkpt>
      <trkpt lat="49.29948" lon="1.37726">
        <ele>141</ele>
        <time>2016-02-29T17:48:11Z</time>
      </trkpt>
      <trkpt lat="49.29997" lon="1.37611">
        <ele>141</ele>
        <time>2016-02-29T17:50:11Z</time>
      </trkpt>
      <trkpt lat="49.30051" lon="1.37525">
        <ele>142</ele>
        <time>2016-02-29T17:52:11Z</time>
      </trkpt>
      <trkpt lat="49.3012" lon="1.37437">
        <ele>145</ele>
        <time>2016-02-29T17:54:11Z</time>
      </trkpt>
      <trkpt lat="49.30092" lon="1.3728">
        <ele>145</ele>
        <time>2016-02-29T17:56:11Z</time>
      </trkpt>
      <trkpt lat="49.30026" lon="1.37117">
        <ele>147</ele>
        <time>2016-02-29T17:58:11Z</time>
      </trkpt>
      <trkpt lat="49.30023" lon="1.36825">
        <ele>152</ele>
        <time>2016-02-29T18:00:11Z</time>
      </trkpt>
      <trkpt lat="49.30008" lon="1.36744">
        <ele>153</ele>
        <time>2016-02-29T18:02:11Z</time>
      </trkpt>
      <trkpt lat="49.29774" lon="1.36169">
        <ele>152</ele>
        <time>2016-02-29T18:04:11Z</time>
      </trkpt>
      <trkpt lat="49.29644" lon="1.35707">
        <ele>149</ele>
        <time>2016-02-29T18:06:11Z</time>
      </trkpt>
      <trkpt lat="49.2965" lon="1.35649">
        <ele>149</ele>
        <time>2016-02-29T18:08:11Z</time>
      </trkpt>
      <trkpt lat="49.29602" lon="1.35501">
        <ele>148</ele>
        <time>2016-02-29T18:10:11Z</time>
      </trkpt>
      <trkpt lat="49.29903" lon="1.35222">
        <ele>153</ele>
        <time>2016-02-29T18:12:11Z</time>
      </trkpt>
      <trkpt lat="49.29925" lon="1.3504">
        <ele>153</ele>
        <time>2016-02-29T18:14:11Z</time>
      </trkpt>
      <trkpt lat="49.30617" lon="1.34461">
        <ele>144</ele>
        <time>2016-02-29T18:16:11Z</time>
      </trkpt>
      <trkpt lat="49.30583" lon="1.34347">
        <ele>142</ele>
        <time>2016-02-29T18:18:11Z</time>
      </trkpt>
      <trkpt lat="49.30587" lon="1.34212">
        <ele>142</ele>
        <time>2016-02-29T18:20:11Z</time>
      </trkpt>
      <trkpt lat="49.30576" lon="1.33969">
        <ele>145</ele>
        <time>2016-02-29T18:22:11Z</time>
      </trkpt>
      <trkpt lat="49.3058" lon="1.33624">
        <ele>149</ele>
        <time>2016-02-29T18:24:11Z</time>
      </trkpt>
      <trkpt lat="49.30556" lon="1.33497">
        <ele>149</ele>
        <time>2016-02-29T18:26:11Z</time>
      </trkpt>
      <trkpt lat="49.30684" lon="1.33188">
        <ele>149</ele>
        <time>2016-02-29T18:28:11Z</time>
      </trkpt>
      <trkpt lat="49.3081" lon="1.32682">
        <ele>151</ele>
        <time>2016-02-29T18:30:11Z</time>
      </trkpt>
      <trkpt lat="49.30891" lon="1.32409">
        <ele>152</ele>
        <time>2016-02-29T18:32:11Z</time>
      </trkpt>
      <trkpt lat="49.30944" lon="1.32321">
        <ele>150</ele>
        <time>2016-02-29T18:34:11Z</time>
      </trkpt>
      <trkpt lat="49.31001" lon="1.32165">
        <ele>149</ele>
        <time>2016-02-29T18:36:11Z</time>
      </trkpt>
      <trkpt lat="49.31015" lon="1.3207">
        <ele>149</ele>
        <time>2016-02-29T18:38:11Z</time>
      </trkpt>
      <trkpt lat="49.31025" lon="1.31941">
        <ele>148</ele>
        <time>2016-02-29T18:40:11Z</time>
      </trkpt>
      <trkpt lat="49.3084" lon="1.31772">
        <ele>146</ele>
        <time>2016-02-29T18:42:11Z</time>
      </trkpt>
      <trkpt lat="49.30854" lon="1.31755">
        <ele>146</ele>
        <time>2016-02-29T18:44:11Z</time>
      </trkpt>
      <trkpt lat="49.30741" lon="1.3154">
        <ele>142</ele>
        <time>2016-02-29T18:46:11Z</time>
      </trkpt>
      <trkpt lat="49.30764" lon="1.31517">
        <ele>142</ele>
        <time>2016-02-29T18:48:11Z</time>
      </trkpt>
      <trkpt lat="49.30747" lon="1.31441">
        <ele>140</ele>
        <time>2016-02-29T18:50:11Z</time>
      </trkpt>
      <trkpt lat="49.30743" lon="1.31353">
        <ele>136</ele>
        <time>2016-02-29T18:52:11Z</time>
      </trkpt>
      <trkpt lat="49.3066" lon="1.31311">
        <ele>129</ele>
        <time>2016-02-29T18:54:11Z</time>
      </trkpt>
      <trkpt lat="49.30782" lon="1.3121">
        <ele>130</ele>
        <time>2016-02-29T18:56:11Z</time>
      </trkpt>
      <trkpt lat="49.30828" lon="1.3107">
        <ele>123</ele>
        <time>2016-02-29T18:58:11Z</time>
      </trkpt>
      <trkpt lat="49.30898" lon="1.30708">
        <ele>133</ele>
        <time>2016-02-29T19:00:11Z</time>
      </trkpt>
      <trkpt lat="49.30899" lon="1.30568">
        <ele>137</ele>
        <time>2016-02-29T19:02:11Z</time>
      </trkpt>
      <trkpt lat="49.30864" lon="1.30351">
        <ele>142</ele>
        <time>2016-02-29T19:04:11Z</time>
      </trkpt>
      <trkpt lat="49.3087" lon="1.30139">
        <ele>144</ele>
        <time>2016-02-29T19:06:11Z</time>
      </trkpt>
      <trkpt lat="49.30801" lon="1.29761">
        <ele>144</ele>
        <time>2016-02-29T19:08:11Z</time>
      </trkpt>
      <trkpt lat="49.30787" lon="1.29637">
        <ele>143</ele>
        <time>2016-02-29T19:10:11Z</time>
      </trkpt>
      <trkpt lat="49.30782" lon="1.29568">
        <ele>142</ele>
        <time>2016-02-29T19:12:11Z</time>
      </trkpt>
      <trkpt lat="49.3079" lon="1.29478">
        <ele>140</ele>
        <time>2016-02-29T19:14:11Z</time>
      </trkpt>
      <trkpt lat="49.30797" lon="1.29436">
        <ele>139</ele>
        <time>2016-02-29T19:16:11Z</time>
      </trkpt>
      <trkpt lat="49.30796" lon="1.29412">
        <ele>138</ele>
        <time>2016-02-29T19:18:11Z</time>
      </trkpt>
      <trkpt lat="49.30808" lon="1.29398">
        <ele>137</ele>
        <time>2016-02-29T19:20:11Z</time>
      </trkpt>
      <trkpt lat="49.30837" lon="1.2935">
        <ele>136</ele>
        <time>2016-02-29T19:22:11Z</time>
      </trkpt>
      <trkpt lat="49.30868" lon="1.29328">
        <ele>137</ele>
        <time>2016-02-29T19:24:11Z</time>
      </trkpt>
      <trkpt lat="49.30902" lon="1.29313">
        <ele>137</ele>
        <time>2016-02-29T19:26:11Z</time>
      </trkpt>
      <trkpt lat="49.3094" lon="1.29277">
        <ele>136</ele>
        <time>2016-02-29T19:28:11Z</time>
      </trkpt>
      <trkpt lat="49.30989" lon="1.29207">
        <ele>134</ele>
        <time>2016-02-29T19:30:11Z</time>
      </trkpt>
      <trkpt lat="49.30975" lon="1.29172">
        <ele>133</ele>
        <time>2016-02-29T19:32:11Z</time>
      </trkpt>
      <trkpt lat="49.30976" lon="1.29145">
        <ele>131</ele>
        <time>2016-02-29T19:34:11Z</time>
      </trkpt>
      <trkpt lat="49.31007" lon="1.29055">
        <ele>126</ele>
        <time>2016-02-29T19:36:11Z</time>
      </trkpt>
      <trkpt lat="49.31091" lon="1.28888">
        <ele>120</ele>
        <time>2016-02-29T19:38:11Z</time>
      </trkpt>
      <trkpt lat="49.31077" lon="1.28811">
        <ele>114</ele>
        <time>2016-02-29T19:40:11Z</time>
      </trkpt>
      <trkpt lat="49.31082" lon="1.28648">
        <ele>120</ele>
        <time>2016-02-29T19:42:11Z</time>
      </trkpt>
      <trkpt lat="49.31082" lon="1.28609">
        <ele>123</ele>
        <time>2016-02-29T19:44:11Z</time>
      </trkpt>
      <trkpt lat="49.30957" lon="1.28442">
        <ele>135</ele>
        <time>2016-02-29T19:46:11Z</time>
      </trkpt>
      <trkpt lat="49.31038" lon="1.28394">
        <ele>135</ele>
        <time>2016-02-29T19:48:11Z</time>
      </trkpt>
      <trkpt lat="49.31248" lon="1.28115">
        <ele>137</ele>
        <time>2016-02-29T19:50:11Z</time>
      </trkpt>
      <trkpt lat="49.31245" lon="1.28055">
        <ele>138</ele>
        <time>2016-02-29T19:52:11Z</time>
      </trkpt>
      <trkpt lat="49.31348" lon="1.27948">
        <ele>136</ele>
        <time>2016-02-29T19:54:11Z</time>
      </trkpt>
      <trkpt lat="49.31365" lon="1.27991">
        <ele>135</ele>
        <time>2016-02-29T19:56:11Z</time>
      </trkpt>
      <trkpt lat="49.31387" lon="1.27987">
        <ele>135</ele>
        <time>2016-02-29T19:58:11Z</time>
      </trkpt>
      <trkpt lat="49.31413" lon="1.28047">
        <ele>133</ele>
        <time>2016-02-29T20:00:11Z</time>
      </trkpt>
      <trkpt lat="49.31483" lon="1.2806">
        <ele>134</ele>
        <time>2016-02-29T20:02:11Z</time>
      </trkpt>
      <trkpt lat="49.31511" lon="1.27922">
        <ele>138</ele>
        <time>2016-02-29T20:04:11Z</time>
      </trkpt>
      <trkpt lat="49.31536" lon="1.27922">
        <ele>137</ele>
        <time>2016-02-29T20:06:11Z</time>
      </trkpt>
      <trkpt lat="49.3153" lon="1.27854">
        <ele>137</ele>
        <time>2016-02-29T20:08:11Z</time>
      </trkpt>
      <trkpt lat="49.31553" lon="1.27789">
        <ele>137</ele>
        <time>2016-02-29T20:10:11Z</time>
      </trkpt>
      <trkpt lat="49.3155" lon="1.27729">
        <ele>137</ele>
        <time>2016-02-29T20:12:11Z</time>
      </trkpt>
      <trkpt lat="49.3153" lon="1.27656">
        <ele>138</ele>
        <time>2016-02-29T20:14:11Z</time>
      </trkpt>
      <trkpt lat="49.31525" lon="1.27553">
        <ele>139</ele>
        <time>2016-02-29T20:16:11Z</time>
      </trkpt>
      <trkpt lat="49.31505" lon="1.27472">
        <ele>136</ele>
        <time>2016-02-29T20:18:11Z</time>
      </trkpt>
      <trkpt lat="49.31488" lon="1.27382">
        <ele>133</ele>
        <time>2016-02-29T20:20:11Z</time>
      </trkpt>
      <trkpt lat="49.31488" lon="1.27253">
        <ele>132</ele>
        <time>2016-02-29T20:22:11Z</time>
      </trkpt>
      <trkpt lat="49.31505" lon="1.27051">
        <ele>133</ele>
        <time>2016-02-29T20:24:11Z</time>
      </trkpt>
      <trkpt lat="49.31259" lon="1.27077">
        <ele>146</ele>
        <time>2016-02-29T20:26:11Z</time>
      </trkpt>
      <trkpt lat="49.31214" lon="1.27116">
        <ele>147</ele>
        <time>2016-02-29T20:28:11Z</time>
      </trkpt>
      <trkpt lat="49.31004" lon="1.26721">
        <ele>146</ele>
        <time>2016-02-29T20:30:11Z</time>
      </trkpt>
      <trkpt lat="49.31041" lon="1.26691">
        <ele>146</ele>
        <time>2016-02-29T20:32:11Z</time>
      </trkpt>
      <trkpt lat="49.31071" lon="1.26661">
        <ele>146</ele>
        <time>2016-02-29T20:34:11Z</time>
      </trkpt>
      <trkpt lat="49.30971" lon="1.26434">
        <ele>145</ele>
        <time>2016-02-29T20:36:11Z</time>
      </trkpt>
      <trkpt lat="49.31091" lon="1.26163">
        <ele>143</ele>
        <time>2016-02-29T20:38:11Z</time>
      </trkpt>
      <trkpt lat="49.3113" lon="1.25991">
        <ele>143</ele>
        <time>2016-02-29T20:40:11Z</time>
      </trkpt>
      <trkpt lat="49.3114" lon="1.25927">
        <ele>144</ele>
        <time>2016-02-29T20:42:11Z</time>
      </trkpt>
      <trkpt lat="49.31129" lon="1.25828">
        <ele>145</ele>
        <time>2016-02-29T20:44:11Z</time>
      </trkpt>
      <trkpt lat="49.31101" lon="1.25727">
        <ele>137</ele>
        <time>2016-02-29T20:46:11Z</time>
      </trkpt>
      <trkpt lat="49.31098" lon="1.25607">
        <ele>124</ele>
        <time>2016-02-29T20:48:11Z</time>
      </trkpt>
      <trkpt lat="49.31112" lon="1.25511">
        <ele>110</ele>
        <time>2016-02-29T20:50:11Z</time>
      </trkpt>
      <trkpt lat="49.31165" lon="1.25332">
        <ele>82</ele>
        <time>2016-02-29T20:52:11Z</time>
      </trkpt>
      <trkpt lat="49.31214" lon="1.25238">
        <ele>65</ele>
        <time>2016-02-29T20:54:11Z</time>
      </trkpt>
      <trkpt lat="49.31225" lon="1.25195">
        <ele>57</ele>
        <time>2016-02-29T20:56:11Z</time>
      </trkpt>
      <trkpt lat="49.31225" lon="1.25133">
        <ele>49</ele>
        <time>2016-02-29T20:58:11Z</time>
      </trkpt>
      <trkpt lat="49.31207" lon="1.25086">
        <ele>42</ele>
        <time>2016-02-29T21:00:11Z</time>
      </trkpt>
      <trkpt lat="49.31119" lon="1.24968">
        <ele>18</ele>
        <time>2016-02-29T21:02:11Z</time>
      </trkpt>
      <trkpt lat="49.30966" lon="1.24841">
        <ele>11</ele>
        <time>2016-02-29T21:04:11Z</time>
      </trkpt>
      <trkpt lat="49.31075" lon="1.24607">
        <ele>12</ele>
        <time>2016-02-29T21:06:11Z</time>
      </trkpt>
      <trkpt lat="49.3111" lon="1.24569">
        <ele>11</ele>
        <time>2016-02-29T21:08:11Z</time>
      </trkpt>
      <trkpt lat="49.31206" lon="1.24262">
        <ele>12</ele>
        <time>2016-02-29T21:10:11Z</time>
      </trkpt>
      <trkpt lat="49.31249" lon="1.24034">
        <ele>8</ele>
        <time>2016-02-29T21:12:11Z</time>
      </trkpt>
      <trkpt lat="49.31249" lon="1.23929">
        <ele>9</ele>
        <time>2016-02-29T21:14:11Z</time>
      </trkpt>
      <trkpt lat="49.31271" lon="1.23869">
        <ele>10</ele>
        <time>2016-02-29T21:16:11Z</time>
      </trkpt>
      <trkpt lat="49.31263" lon="1.23824">
        <ele>9</ele>
        <time>2016-02-29T21:18:11Z</time>
      </trkpt>
      <trkpt lat="49.31276" lon="1.23601">
        <ele>7</ele>
        <time>2016-02-29T21:20:11Z</time>
      </trkpt>
      <trkpt lat="49.31285" lon="1.23545">
        <ele>6</ele>
        <time>2016-02-29T21:22:11Z</time>
      </trkpt>
      <trkpt lat="49.31267" lon="1.23262">
        <ele>6</ele>
        <time>2016-02-29T21:24:11Z</time>
      </trkpt>
      <trkpt lat="49.31284" lon="1.23185">
        <ele>8</ele>
        <time>2016-02-29T21:26:11Z</time>
      </trkpt>
      <trkpt lat="49.31368" lon="1.23094">
        <ele>10</ele>
        <time>2016-02-29T21:28:11Z</time>
      </trkpt>
      <trkpt lat="49.31399" lon="1.23045">
        <ele>9</ele>
        <time>2016-02-29T21:30:11Z</time>
      </trkpt>
      <trkpt lat="49.31394" lon="1.23019">
        <ele>8</ele>
        <time>2016-02-29T21:32:11Z</time>
      </trkpt>
      <trkpt lat="49.31492" lon="1.2282">
        <ele>9</ele>
        <time>2016-02-29T21:34:11Z</time>
      </trkpt>
      <trkpt lat="49.31513" lon="1.2277">
        <ele>8</ele>
        <time>2016-02-29T21:36:11Z</time>
      </trkpt>
      <trkpt lat="49.31164" lon="1.22406">
        <ele>7</ele>
        <time>2016-02-29T21:38:11Z</time>
      </trkpt>
      <trkpt lat="49.31141" lon="1.22356">
        <ele>6</ele>
        <time>2016-02-29T21:40:11Z</time>
      </trkpt>
      <trkpt lat="49.31127" lon="1.22273">
        <ele>6</ele>
        <time>2016-02-29T21:42:11Z</time>
      </trkpt>
      <trkpt lat="49.31109" lon="1.22144">
        <ele>7</ele>
        <time>2016-02-29T21:44:11Z</time>
      </trkpt>
      <trkpt lat="49.31098" lon="1.21931">
        <ele>7</ele>
        <time>2016-02-29T21:46:11Z</time>
      </trkpt>
      <trkpt lat="49.31095" lon="1.21798">
        <ele>7</ele>
        <time>2016-02-29T21:48:11Z</time>
      </trkpt>
      <trkpt lat="49.31103" lon="1.21594">
        <ele>9</ele>
        <time>2016-02-29T21:50:11Z</time>
      </trkpt>
      <trkpt lat="49.31145" lon="1.21459">
        <ele>8</ele>
        <time>2016-02-29T21:52:11Z</time>
      </trkpt>
      <trkpt lat="49.31168" lon="1.21339">
        <ele>11</ele>
        <time>2016-02-29T21:54:11Z</time>
      </trkpt>
      <trkpt lat="49.31183" lon="1.21225">
        <ele>9</ele>
        <time>2016-02-29T21:56:11Z</time>
      </trkpt>
      <trkpt lat="49.31152" lon="1.21084">
        <ele>8</ele>
        <time>2016-02-29T21:58:11Z</time>
      </trkpt>
      <trkpt lat="49.31162" lon="1.21041">
        <ele>9</ele>
        <time>2016-02-29T22:00:11Z</time>
      </trkpt>
      <trkpt lat="49.31136" lon="1.21002">
        <ele>9</ele>
        <time>2016-02-29T22:02:11Z</time>
      </trkpt>
      <trkpt lat="49.31127" lon="1.20953">
        <ele>9</ele>
        <time>2016-02-29T22:04:11Z</time>
      </trkpt>
      <trkpt lat="49.31126" lon="1.20912">
        <ele>9</ele>
        <time>2016-02-29T22:06:11Z</time>
      </trkpt>
      <trkpt lat="49.31088" lon="1.20747">
        <ele>7</ele>
        <time>2016-02-29T22:08:11Z</time>
      </trkpt>
      <trkpt lat="49.31098" lon="1.20719">
        <ele>8</ele>
        <time>2016-02-29T22:10:11Z</time>
      </trkpt>
      <trkpt lat="49.31082" lon="1.2064">
        <ele>8</ele>
        <time>2016-02-29T22:12:11Z</time>
      </trkpt>
      <trkpt lat="49.31089" lon="1.20597">
        <ele>8</ele>
        <time>2016-02-29T22:14:11Z</time>
      </trkpt>
      <trkpt lat="49.31068" lon="1.20431">
        <ele>8</ele>
        <time>2016-02-29T22:16:11Z</time>
      </trkpt>
      <trkpt lat="49.31052" lon="1.20296">
        <ele>9</ele>
        <time>2016-02-29T22:18:11Z</time>
      </trkpt>
      <trkpt lat="49.31074" lon="1.20071">
        <ele>11</ele>
        <time>2016-02-29T22:20:11Z</time>
      </trkpt>
      <trkpt lat="49.31334" lon="1.20129">
        <ele>13</ele>
        <time>2016-02-29T22:22:11Z</time>
      </trkpt>
      <trkpt lat="49.31594" lon="1.20077">
        <ele>11</ele>
        <time>2016-02-29T22:24:11Z</time>
      </trkpt>
      <trkpt lat="49.31687" lon="1.2002">
        <ele>13</ele>
        <time>2016-02-29T22:26:11Z</time>
      </trkpt>
      <trkpt lat="49.32052" lon="1.20026">
        <ele>14</ele>
        <time>2016-02-29T22:28:11Z</time>
      </trkpt>
      <trkpt lat="49.32161" lon="1.19992">
        <ele>17</ele>
        <time>2016-02-29T22:30:11Z</time>
      </trkpt>
      <trkpt lat="49.32374" lon="1.19974">
        <ele>24</ele>
        <time>2016-02-29T22:32:11Z</time>
      </trkpt>
      <trkpt lat="49.32337" lon="1.19736">
        <ele>23</ele>
        <time>2016-02-29T22:34:11Z</time>
      </trkpt>
      <trkpt lat="49.3216" lon="1.1858">
        <ele>16</ele>
        <time>2016-02-29T22:36:11Z</time>
      </trkpt>
      <trkpt lat="49.32137" lon="1.18417">
        <ele>16</ele>
        <time>2016-02-29T22:38:11Z</time>
      </trkpt>
      <trkpt lat="49.32176" lon="1.18399">
        <ele>17</ele>
        <time>2016-02-29T22:40:11Z</time>
      </trkpt>
      <trkpt lat="49.32188" lon="1.18348">
        <ele>17</ele>
        <time>2016-02-29T22:42:11Z</time>
      </trkpt>
      <trkpt lat="49.32174" lon="1.18043">
        <ele>19</ele>
        <time>2016-02-29T22:44:11Z</time>
      </trkpt>
      <trkpt lat="49.32196" lon="1.17812">
        <ele>22</ele>
        <time>2016-02-29T22:46:11Z</time>
      </trkpt>
      <trkpt lat="49.32171" lon="1.17717">
        <ele>22</ele>
        <time>2016-02-29T22:48:11Z</time>
      </trkpt>
      <trkpt lat="49.32188" lon="1.17648">
        <ele>24</ele>
        <time>2016-02-29T22:50:11Z</time>
      </trkpt>
      <trkpt lat="49.32174" lon="1.17503">
        <ele>25</ele>
        <time>2016-02-29T22:52:11Z</time>
      </trkpt>
      <trkpt lat="49.32367" lon="1.17498">
        <ele>60</ele>
        <time>2016-02-29T22:54:11Z</time>
      </trkpt>
      <trkpt lat="49.3247" lon="1.17661">
        <ele>81</ele>
        <time>2016-02-29T22:56:11Z</time>
      </trkpt>
      <trkpt lat="49.3256" lon="1.17721">
        <ele>103</ele>
        <time>2016-02-29T22:58:11Z</time>
      </trkpt>
      <trkpt lat="49.32593" lon="1.17777">
        <ele>109</ele>
        <time>2016-02-29T23:00:11Z</time>
      </trkpt>
      <trkpt lat="49.32716" lon="1.17657">
        <ele>115</ele>
        <time>2016-02-29T23:02:11Z</time>
      </trkpt>
      <trkpt lat="49.32607" lon="1.17103">
        <ele>111</ele>
        <time>2016-02-29T23:04:11Z</time>
      </trkpt>
      <trkpt lat="49.32582" lon="1.16387">
        <ele>91</ele>
        <time>2016-02-29T23:06:11Z</time>
      </trkpt>
      <trkpt lat="49.32582" lon="1.16279">
        <ele>87</ele>
        <time>2016-02-29T23:08:11Z</time>
      </trkpt>
      <trkpt lat="49.32604" lon="1.16224">
        <ele>83</ele>
        <time>2016-02-29T23:10:11Z</time>
      </trkpt>
      <trkpt lat="49.32607" lon="1.16129">
        <ele>77</ele>
        <time>2016-02-29T23:12:11Z</time>
      </trkpt>
      <trkpt lat="49.32582" lon="1.16026">
        <ele>74</ele>
        <time>2016-02-29T23:14:11Z</time>
      </trkpt>
      <trkpt lat="49.32599" lon="1.15906">
        <ele>69</ele>
        <time>2016-02-29T23:16:11Z</time>
      </trkpt>
      <trkpt lat="49.3259" lon="1.15812">
        <ele>66</ele>
        <time>2016-02-29T23:18:11Z</time>
      </trkpt>
      <trkpt lat="49.3256" lon="1.15683">
        <ele>63</ele>
        <time>2016-02-29T23:20:11Z</time>
      </trkpt>
      <trkpt lat="49.32526" lon="1.15631">
        <ele>62</ele>
        <time>2016-02-29T23:22:11Z</time>
      </trkpt>
      <trkpt lat="49.32434" lon="1.15546">
        <ele>61</ele>
        <time>2016-02-29T23:24:11Z</time>
      </trkpt>
      <trkpt lat="49.32241" lon="1.15078">
        <ele>45</ele>
        <time>2016-02-29T23:26:11Z</time>
      </trkpt>
      <trkpt lat="49.3221" lon="1.15005">
        <ele>37</ele>
        <time>2016-02-29T23:28:11Z</time>
      </trkpt>
      <trkpt lat="49.32238" lon="1.14949">
        <ele>32</ele>
        <time>2016-02-29T23:30:11Z</time>
      </trkpt>
      <trkpt lat="49.32291" lon="1.14945">
        <ele>29</ele>
        <time>2016-02-29T23:32:11Z</time>
      </trkpt>
      <trkpt lat="49.32227" lon="1.14795">
        <ele>20</ele>
        <time>2016-02-29T23:34:11Z</time>
      </trkpt>
      <trkpt lat="49.3214" lon="1.14739">
        <ele>17</ele>
        <time>2016-02-29T23:36:11Z</time>
      </trkpt>
      <trkpt lat="49.32176" lon="1.14597">
        <ele>20</ele>
        <time>2016-02-29T23:38:11Z</time>
      </trkpt>
      <trkpt lat="49.32175" lon="1.14554">
        <ele>21</ele>
        <time>2016-02-29T23:40:11Z</time>
      </trkpt>
      <trkpt lat="49.32193" lon="1.14544">
        <ele>22</ele>
        <time>2016-02-29T23:42:11Z</time>
      </trkpt>
      <trkpt lat="49.32291" lon="1.14207">
        <ele>52</ele>
        <time>2016-02-29T23:44:11Z</time>
      </trkpt>
      <trkpt lat="49.32453" lon="1.13816">
        <ele>85</ele>
        <time>2016-02-29T23:46:11Z</time>
      </trkpt>
      <trkpt lat="49.32568" lon="1.13683">
        <ele>87</ele>
        <time>2016-02-29T23:48:11Z</time>
      </trkpt>
      <trkpt lat="49.32492" lon="1.13494">
        <ele>85</ele>
        <time>2016-02-29T23:50:11Z</time>
      </trkpt>
      <trkpt lat="49.32439" lon="1.13185">
        <ele>84</ele>
        <time>2016-02-29T23:52:11Z</time>
      </trkpt>
      <trkpt lat="49.32325" lon="1.12679">
        <ele>82</ele>
        <time>2016-02-29T23:54:11Z</time>
      </trkpt>
      <trkpt lat="49.32271" lon="1.12546">
        <ele>78</ele>
        <time>2016-02-29T23:56:11Z</time>
      </trkpt>
      <trkpt lat="49.32434" lon="1.12366">
        <ele>81</ele>
        <time>2016-02-29T23:58:11Z</time>
      </trkpt>
      <trkpt lat="49.32492" lon="1.11941">
        <ele>83</ele>
        <time>2016-03-01T00:00:11Z</time>
      </trkpt>
      <trkpt lat="49.324" lon="1.11447">
        <ele>74</ele>
        <time>2016-03-01T00:02:11Z</time>
      </trkpt>
      <trkpt lat="49.32599" lon="1.10911">
        <ele>49</ele>
        <time>2016-03-01T00:04:11Z</time>
      </trkpt>
      <trkpt lat="49.32719" lon="1.10692">
        <ele>31</ele>
        <time>2016-03-01T00:06:11Z</time>
      </trkpt>
      <trkpt lat="49.32747" lon="1.10589">
        <ele>19</ele>
        <time>2016-03-01T00:08:11Z</time>
      </trkpt>
      <trkpt lat="49.32845" lon="1.1064">
        <ele>14</ele>
        <time>2016-03-01T00:10:11Z</time>
      </trkpt>
      <trkpt lat="49.32906" lon="1.10582">
        <ele>7</ele>
        <time>2016-03-01T00:12:11Z</time>
      </trkpt>
      <trkpt lat="49.32871" lon="1.10512">
        <ele>8</ele>
        <time>2016-03-01T00:14:11Z</time>
      </trkpt>
      <trkpt lat="49.32881" lon="1.10469">
        <ele>8</ele>
        <time>2016-03-01T00:16:11Z</time>
      </trkpt>
      <trkpt lat="49.32975" lon="1.10443">
        <ele>8</ele>
        <time>2016-03-01T00:18:11Z</time>
      </trkpt>
      <trkpt lat="49.33113" lon="1.10452">
        <ele>6</ele>
        <time>2016-03-01T00:20:11Z</time>
      </trkpt>
      <trkpt lat="49.33113" lon="1.10376">
        <ele>7</ele>
        <time>2016-03-01T00:22:11Z</time>
      </trkpt>
      <trkpt lat="49.33126" lon="1.10334">
        <ele>7</ele>
        <time>2016-03-01T00:24:11Z</time>
      </trkpt>
      <trkpt lat="49.33134" lon="1.1022">
        <ele>8</ele>
        <time>2016-03-01T00:26:11Z</time>
      </trkpt>
      <trkpt lat="49.33092" lon="1.10179">
        <ele>8</ele>
        <time>2016-03-01T00:28:11Z</time>
      </trkpt>
      <trkpt lat="49.33067" lon="1.10138">
        <ele>7</ele>
        <time>2016-03-01T00:30:11Z</time>
      </trkpt>
      <trkpt lat="49.33168" lon="1.10065">
        <ele>7</ele>
        <time>2016-03-01T00:32:11Z</time>
      </trkpt>
      <trkpt lat="49.33197" lon="1.10067">
        <ele>7</ele>
        <time>2016-03-01T00:34:11Z</time>
      </trkpt>
      <trkpt lat="49.33215" lon="1.10037">
        <ele>7</ele>
        <time>2016-03-01T00:36:11Z</time>
      </trkpt>
      <trkpt lat="49.33243" lon="1.10048">
        <ele>7</ele>
        <time>2016-03-01T00:38:11Z</time>
      </trkpt>
      <trkpt lat="49.33343" lon="1.1002">
        <ele>7</ele>
        <time>2016-03-01T00:40:11Z</time>
      </trkpt>
      <trkpt lat="49.33624" lon="1.10211">
        <ele>7</ele>
        <time>2016-03-01T00:42:11Z</time>
      </trkpt>
      <trkpt lat="49.33666" lon="1.10218">
        <ele>9</ele>
        <time>2016-03-01T00:44:11Z</time>
      </trkpt>
      <trkpt lat="49.33998" lon="1.1019">
        <ele>7</ele>
        <time>2016-03-01T00:46:11Z</time>
      </trkpt>
      <trkpt lat="49.34087" lon="1.10138">
        <ele>10</ele>
        <time>2016-03-01T00:48:11Z</time>
      </trkpt>
      <trkpt lat="49.34106" lon="1.10147">
        <ele>10</ele>
        <time>2016-03-01T00:50:11Z</time>
      </trkpt>
      <trkpt lat="49.34102" lon="1.10108">
        <ele>10</ele>
        <time>2016-03-01T00:52:11Z</time>
      </trkpt>
      <trkpt lat="49.33942" lon="1.10158">
        <ele>4</ele>
        <time>2016-03-01T00:54:11Z</time>
      </trkpt>
      <trkpt lat="49.33857" lon="1.09625">
        <ele>8</ele>
        <time>2016-03-01T00:56:11Z</time>
      </trkpt>
      <trkpt lat="49.33854" lon="1.09471">
        <ele>6</ele>
        <time>2016-03-01T00:58:11Z</time>
      </trkpt>
      <trkpt lat="49.33847" lon="1.09407">
        <ele>6</ele>
        <time>2016-03-01T01:00:11Z</time>
      </trkpt>
      <trkpt lat="49.33807" lon="1.09282">
        <ele>6</ele>
        <time>2016-03-01T01:02:11Z</time>
      </trkpt>
      <trkpt lat="49.33748" lon="1.09192">
        <ele>6</ele>
        <time>2016-03-01T01:04:11Z</time>
      </trkpt>
      <trkpt lat="49.33701" lon="1.09098">
        <ele>3</ele>
        <time>2016-03-01T01:06:11Z</time>
      </trkpt>
      <trkpt lat="49.33666" lon="1.09027">
        <ele>4</ele>
        <time>2016-03-01T01:08:11Z</time>
      </trkpt>
      <trkpt lat="49.33639" lon="1.08995">
        <ele>4</ele>
        <time>2016-03-01T01:10:11Z</time>
      </trkpt>
      <trkpt lat="49.33593" lon="1.08801">
        <ele>3</ele>
        <time>2016-03-01T01:12:11Z</time>
      </trkpt>
      <trkpt lat="49.3358" lon="1.08728">
        <ele>5</ele>
        <time>2016-03-01T01:14:11Z</time>
      </trkpt>
      <trkpt lat="49.33599" lon="1.08533">
        <ele>10</ele>
        <time>2016-03-01T01:16:11Z</time>
      </trkpt>
      <trkpt lat="49.33624" lon="1.08267">
        <ele>11</ele>
        <time>2016-03-01T01:18:11Z</time>
      </trkpt>
      <trkpt lat="49.33611" lon="1.08059">
        <ele>10</ele>
        <time>2016-03-01T01:20:11Z</time>
      </trkpt>
      <trkpt lat="49.33579" lon="1.07799">
        <ele>9</ele>
        <time>2016-03-01T01:22:11Z</time>
      </trkpt>
      <trkpt lat="49.33529" lon="1.07615">
        <ele>10</ele>
        <time>2016-03-01T01:24:11Z</time>
      </trkpt>
      <trkpt lat="49.33338" lon="1.07226">
        <ele>5</ele>
        <time>2016-03-01T01:26:11Z</time>
      </trkpt>
      <trkpt lat="49.33301" lon="1.07031">
        <ele>5</ele>
        <time>2016-03-01T01:28:11Z</time>
      </trkpt>
      <trkpt lat="49.33179" lon="1.06671">
        <ele>6</ele>
        <time>2016-03-01T01:30:11Z</time>
      </trkpt>
      <trkpt lat="49.3306" lon="1.0639">
        <ele>3</ele>
        <time>2016-03-01T01:32:11Z</time>
      </trkpt>
      <trkpt lat="49.33187" lon="1.06314">
        <ele>13</ele>
        <time>2016-03-01T01:34:11Z</time>
      </trkpt>
      <trkpt lat="49.33206" lon="1.0633">
        <ele>14</ele>
        <time>2016-03-01T01:36:11Z</time>
      </trkpt>
      <trkpt lat="49.33214" lon="1.0628">
        <ele>19</ele>
        <time>2016-03-01T01:38:11Z</time>
      </trkpt>
      <trkpt lat="49.33256" lon="1.06237">
        <ele>30</ele>
        <time>2016-03-01T01:40:11Z</time>
      </trkpt>
      <trkpt lat="49.33266" lon="1.06164">
        <ele>39</ele>
        <time>2016-03-01T01:42:11Z</time>
      </trkpt>
      <trkpt lat="49.33299" lon="1.0613">
        <ele>51</ele>
        <time>2016-03-01T01:44:11Z</time>
      </trkpt>
      <trkpt lat="49.33331" lon="1.05995">
        <ele>68</ele>
        <time>2016-03-01T01:46:11Z</time>
      </trkpt>
      <trkpt lat="49.33401" lon="1.05918">
        <ele>81</ele>
        <time>2016-03-01T01:48:11Z</time>
      </trkpt>
      <trkpt lat="49.33445" lon="1.05887">
        <ele>87</ele>
        <time>2016-03-01T01:50:11Z</time>
      </trkpt>
      <trkpt lat="49.33512" lon="1.058">
        <ele>96</ele>
        <time>2016-03-01T01:52:11Z</time>
      </trkpt>
      <trkpt lat="49.33469" lon="1.05594">
        <ele>107</ele>
        <time>2016-03-01T01:54:11Z</time>
      </trkpt>
      <trkpt lat="49.33413" lon="1.05456">
        <ele>116</ele>
        <time>2016-03-01T01:56:11Z</time>
      </trkpt>
      <trkpt lat="49.3329" lon="1.05066">
        <ele>124</ele>
        <time>2016-03-01T01:58:11Z</time>
      </trkpt>
      <trkpt lat="49.33323" lon="1.04722">
        <ele>127</ele>
        <time>2016-03-01T02:00:11Z</time>
      </trkpt>
      <trkpt lat="49.33242" lon="1.04495">
        <ele>127</ele>
        <time>2016-03-01T02:02:11Z</time>
      </trkpt>
      <trkpt lat="49.3325" lon="1.04336">
        <ele>132</ele>
        <time>2016-03-01T02:04:11Z</time>
      </trkpt>
      <trkpt lat="49.33242" lon="1.04199">
        <ele>130</ele>
        <time>2016-03-01T02:06:11Z</time>
      </trkpt>
      <trkpt lat="49.33242" lon="1.04074">
        <ele>130</ele>
        <time>2016-03-01T02:08:11Z</time>
      </trkpt>
      <trkpt lat="49.33222" lon="1.03894">
        <ele>127</ele>
        <time>2016-03-01T02:10:11Z</time>
      </trkpt>
      <trkpt lat="49.3318" lon="1.03787">
        <ele>125</ele>
        <time>2016-03-01T02:12:11Z</time>
      </trkpt>
      <trkpt lat="49.33158" lon="1.03654">
        <ele>122</ele>
        <time>2016-03-01T02:14:11Z</time>
      </trkpt>
      <trkpt lat="49.33018" lon="1.03353">
        <ele>123</ele>
        <time>2016-03-01T02:16:11Z</time>
      </trkpt>
      <trkpt lat="49.33147" lon="1.02482">
        <ele>126</ele>
        <time>2016-03-01T02:18:11Z</time>
      </trkpt>
      <trkpt lat="49.32895" lon="1.01693">
        <ele>134</ele>
        <time>2016-03-01T02:20:11Z</time>
      </trkpt>
      <trkpt lat="49.33015" lon="1.01418">
        <ele>130</ele>
        <time>2016-03-01T02:22:11Z</time>
      </trkpt>
      <trkpt lat="49.33077" lon="1.01366">
        <ele>130</ele>
        <time>2016-03-01T02:24:11Z</time>
      </trkpt>
      <trkpt lat="49.33133" lon="1.01358">
        <ele>130</ele>
        <time>2016-03-01T02:26:11Z</time>
      </trkpt>
      <trkpt lat="49.33183" lon="1.01263">
        <ele>131</ele>
        <time>2016-03-01T02:28:11Z</time>
      </trkpt>
      <trkpt lat="49.33214" lon="1.01139">
        <ele>132</ele>
        <time>2016-03-01T02:30:11Z</time>
      </trkpt>
      <trkpt lat="49.33267" lon="1.01032">
        <ele>133</ele>
        <time>2016-03-01T02:32:11Z</time>
      </trkpt>
      <trkpt lat="49.33158" lon="1.00946">
        <ele>128</ele>
        <time>2016-03-01T02:34:11Z</time>
      </trkpt>
      <trkpt lat="49.3294" lon="1.00246">
        <ele>85</ele>
        <time>2016-03-01T02:36:11Z</time>
      </trkpt>
      <trkpt lat="49.33329" lon="0.99972">
        <ele>125</ele>
        <time>2016-03-01T02:38:11Z</time>
      </trkpt>
      <trkpt lat="49.33242" lon="0.99736">
        <ele>126</ele>
        <time>2016-03-01T02:40:11Z</time>
      </trkpt>
      <trkpt lat="49.33485" lon="0.98474">
        <ele>117</ele>
        <time>2016-03-01T02:42:11Z</time>
      </trkpt>
      <trkpt lat="49.33717" lon="0.98268">
        <ele>133</ele>
        <time>2016-03-01T02:44:11Z</time>
      </trkpt>
      <trkpt lat="49.33583" lon="0.97873">
        <ele>118</ele>
        <time>2016-03-01T02:46:11Z</time>
      </trkpt>
      <trkpt lat="49.33622" lon="0.97809">
        <ele>115</ele>
        <time>2016-03-01T02:48:11Z</time>
      </trkpt>
      <trkpt lat="49.3374" lon="0.97822">
        <ele>115</ele>
        <time>2016-03-01T02:50:11Z</time>
      </trkpt>
      <trkpt lat="49.33773" lon="0.97693">
        <ele>115</ele>
        <time>2016-03-01T02:52:11Z</time>
      </trkpt>
      <trkpt lat="49.33731" lon="0.97633">
        <ele>112</ele>
        <time>2016-03-01T02:54:11Z</time>
      </trkpt>
      <trkpt lat="49.33734" lon="0.97594">
        <ele>112</ele>
        <time>2016-03-01T02:56:11Z</time>
      </trkpt>
      <trkpt lat="49.33779" lon="0.9756">
        <ele>119</ele>
        <time>2016-03-01T02:58:11Z</time>
      </trkpt>
      <trkpt lat="49.33771" lon="0.97161">
        <ele>120</ele>
        <time>2016-03-01T03:00:11Z</time>
      </trkpt>
      <trkpt lat="49.33743" lon="0.97019">
        <ele>111</ele>
        <time>2016-03-01T03:02:11Z</time>
      </trkpt>
      <trkpt lat="49.33751" lon="0.96882">
        <ele>108</ele>
        <time>2016-03-01T03:04:11Z</time>
      </trkpt>
      <trkpt lat="49.33807" lon="0.9674">
        <ele>108</ele>
        <time>2016-03-01T03:06:11Z</time>
      </trkpt>
      <trkpt lat="49.33754" lon="0.96607">
        <ele>104</ele>
        <time>2016-03-01T03:08:11Z</time>
      </trkpt>
      <trkpt lat="49.33751" lon="0.96465">
        <ele>102</ele>
        <time>2016-03-01T03:10:11Z</time>
      </trkpt>
      <trkpt lat="49.33871" lon="0.96307">
        <ele>98</ele>
        <time>2016-03-01T03:12:11Z</time>
      </trkpt>
      <trkpt lat="49.33818" lon="0.96307">
        <ele>97</ele>
        <time>2016-03-01T03:14:11Z</time>
      </trkpt>
      <trkpt lat="49.33969" lon="0.96204">
        <ele>85</ele>
        <time>2016-03-01T03:16:11Z</time>
      </trkpt>
      <trkpt lat="49.34025" lon="0.96049">
        <ele>75</ele>
        <time>2016-03-01T03:18:11Z</time>
      </trkpt>
      <trkpt lat="49.3417" lon="0.9577">
        <ele>36</ele>
        <time>2016-03-01T03:20:11Z</time>
      </trkpt>
      <trkpt lat="49.34215" lon="0.958">
        <ele>19</ele>
        <time>2016-03-01T03:22:11Z</time>
      </trkpt>
      <trkpt lat="49.34243" lon="0.95573">
        <ele>14</ele>
        <time>2016-03-01T03:24:11Z</time>
      </trkpt>
      <trkpt lat="49.3424" lon="0.95517">
        <ele>16</ele>
        <time>2016-03-01T03:26:11Z</time>
      </trkpt>
      <trkpt lat="49.34285" lon="0.95491">
        <ele>9</ele>
        <time>2016-03-01T03:28:11Z</time>
      </trkpt>
      <trkpt lat="49.34347" lon="0.95547">
        <ele>5</ele>
        <time>2016-03-01T03:30:11Z</time>
      </trkpt>
      <trkpt lat="49.34411" lon="0.95573">
        <ele>5</ele>
        <time>2016-03-01T03:32:11Z</time>
      </trkpt>
      <trkpt lat="49.34386" lon="0.95401">
        <ele>8</ele>
        <time>2016-03-01T03:34:11Z</time>
      </trkpt>
      <trkpt lat="49.34525" lon="0.94817">
        <ele>7</ele>
        <time>2016-03-01T03:36:11Z</time>
      </trkpt>
      <trkpt lat="49.34562" lon="0.94822">
        <ele>9</ele>
        <time>2016-03-01T03:38:11Z</time>
      </trkpt>
      <trkpt lat="49.34665" lon="0.94363">
        <ele>9</ele>
        <time>2016-03-01T03:40:11Z</time>
      </trkpt>
      <trkpt lat="49.34769" lon="0.93916">
        <ele>14</ele>
        <time>2016-03-01T03:42:11Z</time>
      </trkpt>
      <trkpt lat="49.34867" lon="0.93959">
        <ele>11</ele>
        <time>2016-03-01T03:44:11Z</time>
      </trkpt>
      <trkpt lat="49.34992" lon="0.93968">
        <ele>8</ele>
        <time>2016-03-01T03:46:11Z</time>
      </trkpt>
      <trkpt lat="49.35026" lon="0.93659">
        <ele>3</ele>
        <time>2016-03-01T03:48:11Z</time>
      </trkpt>
      <trkpt lat="49.35062" lon="0.93594">
        <ele>3</ele>
        <time>2016-03-01T03:50:11Z</time>
      </trkpt>
      <trkpt lat="49.35113" lon="0.93363">
        <ele>3</ele>
        <time>2016-03-01T03:52:11Z</time>
      </trkpt>
      <trkpt lat="49.35023" lon="0.93251">
        <ele>17</ele>
        <time>2016-03-01T03:54:11Z</time>
      </trkpt>
      <trkpt lat="49.35087" lon="0.93191">
        <ele>8</ele>
        <time>2016-03-01T03:56:11Z</time>
      </trkpt>
      <trkpt lat="49.35163" lon="0.93135">
        <ele>8</ele>
        <time>2016-03-01T03:58:11Z</time>
      </trkpt>
      <trkpt lat="49.35241" lon="0.93054">
        <ele>6</ele>
        <time>2016-03-01T04:00:11Z</time>
      </trkpt>
      <trkpt lat="49.35289" lon="0.92959">
        <ele>8</ele>
        <time>2016-03-01T04:02:11Z</time>
      </trkpt>
      <trkpt lat="49.35237" lon="0.92923">
        <ele>13</ele>
        <time>2016-03-01T04:04:11Z</time>
      </trkpt>
      <trkpt lat="49.3525" lon="0.92878">
        <ele>14</ele>
        <time>2016-03-01T04:06:11Z</time>
      </trkpt>
      <trkpt lat="49.35181" lon="0.9277">
        <ele>43</ele>
        <time>2016-03-01T04:08:11Z</time>
      </trkpt>
      <trkpt lat="49.35157" lon="0.92682">
        <ele>64</ele>
        <time>2016-03-01T04:10:11Z</time>
      </trkpt>
      <trkpt lat="49.35247" lon="0.92702">
        <ele>55</ele>
        <time>2016-03-01T04:12:11Z</time>
      </trkpt>
      <trkpt lat="49.35285" lon="0.92676">
        <ele>49</ele>
        <time>2016-03-01T04:14:11Z</time>
      </trkpt>
      <trkpt lat="49.35205" lon="0.92541">
        <ele>78</ele>
        <time>2016-03-01T04:16:11Z</time>
      </trkpt>
      <trkpt lat="49.35171" lon="0.92438">
        <ele>100</ele>
        <time>2016-03-01T04:18:11Z</time>
      </trkpt>
      <trkpt lat="49.3517" lon="0.92376">
        <ele>114</ele>
        <time>2016-03-01T04:20:11Z</time>
      </trkpt>
      <trkpt lat="49.35209" lon="0.92249">
        <ele>126</ele>
        <time>2016-03-01T04:22:11Z</time>
      </trkpt>
      <trkpt lat="49.35314" lon="0.92144">
        <ele>131</ele>
        <time>2016-03-01T04:24:11Z</time>
      </trkpt>
      <trkpt lat="49.35409" lon="0.91595">
        <ele>133</ele>
        <time>2016-03-01T04:26:11Z</time>
      </trkpt>
      <trkpt lat="49.35497" lon="0.91524">
        <ele>132</ele>
        <time>2016-03-01T04:28:11Z</time>
      </trkpt>
      <trkpt lat="49.35609" lon="0.91382">
        <ele>132</ele>
        <time>2016-03-01T04:30:11Z</time>
      </trkpt>
      <trkpt lat="49.35652" lon="0.91341">
        <ele>132</ele>
        <time>2016-03-01T04:32:11Z</time>
      </trkpt>
      <trkpt lat="49.35818" lon="0.91163">
        <ele>136</ele>
        <time>2016-03-01T04:34:11Z</time>
      </trkpt>
      <trkpt lat="49.35919" lon="0.91103">
        <ele>141</ele>
        <time>2016-03-01T04:36:11Z</time>
      </trkpt>
      <trkpt lat="49.36197" lon="0.91">
        <ele>134</ele>
        <time>2016-03-01T04:38:11Z</time>
      </trkpt>
      <trkpt lat="49.36264" lon="0.90979">
        <ele>135</ele>
        <time>2016-03-01T04:40:11Z</time>
      </trkpt>
      <trkpt lat="49.36345" lon="0.90861">
        <ele>138</ele>
        <time>2016-03-01T04:42:11Z</time>
      </trkpt>
      <trkpt lat="49.36424" lon="0.90807">
        <ele>136</ele>
        <time>2016-03-01T04:44:11Z</time>
      </trkpt>
      <trkpt lat="49.36465" lon="0.90741">
        <ele>137</ele>
        <time>2016-03-01T04:46:11Z</time>
      </trkpt>
      <trkpt lat="49.36562" lon="0.90693">
        <ele>133</ele>
        <time>2016-03-01T04:48:11Z</time>
      </trkpt>
      <trkpt lat="49.36559" lon="0.90635">
        <ele>133</ele>
        <time>2016-03-01T04:50:11Z</time>
      </trkpt>
      <trkpt lat="49.36674" lon="0.90618">
        <ele>128</ele>
        <time>2016-03-01T04:52:11Z</time>
      </trkpt>
      <trkpt lat="49.36713" lon="0.90382">
        <ele>122</ele>
        <time>2016-03-01T04:54:11Z</time>
      </trkpt>
      <trkpt lat="49.36735" lon="0.90365">
        <ele>119</ele>
        <time>2016-03-01T04:56:11Z</time>
      </trkpt>
      <trkpt lat="49.3673" lon="0.90303">
        <ele>119</ele>
        <time>2016-03-01T04:58:11Z</time>
      </trkpt>
      <trkpt lat="49.36826" lon="0.90406">
        <ele>127</ele>
        <time>2016-03-01T05:00:11Z</time>
      </trkpt>
      <trkpt lat="49.36853" lon="0.90417">
        <ele>129</ele>
        <time>2016-03-01T05:02:11Z</time>
      </trkpt>
      <trkpt lat="49.36899" lon="0.9032">
        <ele>134</ele>
        <time>2016-03-01T05:04:11Z</time>
      </trkpt>
      <trkpt lat="49.36936" lon="0.90271">
        <ele>133</ele>
        <time>2016-03-01T05:06:11Z</time>
      </trkpt>
      <trkpt lat="49.36963" lon="0.90211">
        <ele>132</ele>
        <time>2016-03-01T05:08:11Z</time>
      </trkpt>
      <trkpt lat="49.37003" lon="0.89947">
        <ele>133</ele>
        <time>2016-03-01T05:10:11Z</time>
      </trkpt>
      <trkpt lat="49.37024" lon="0.89904">
        <ele>134</ele>
        <time>2016-03-01T05:12:11Z</time>
      </trkpt>
      <trkpt lat="49.37061" lon="0.89807">
        <ele>132</ele>
        <time>2016-03-01T05:14:11Z</time>
      </trkpt>
      <trkpt lat="49.36982" lon="0.89711">
        <ele>126</ele>
        <time>2016-03-01T05:16:11Z</time>
      </trkpt>
      <trkpt lat="49.36939" lon="0.89698">
        <ele>126</ele>
        <time>2016-03-01T05:18:11Z</time>
      </trkpt>
      <trkpt lat="49.3689" lon="0.89539">
        <ele>126</ele>
        <time>2016-03-01T05:20:11Z</time>
      </trkpt>
      <trkpt lat="49.36885" lon="0.89477">
        <ele>124</ele>
        <time>2016-03-01T05:22:11Z</time>
      </trkpt>
      <trkpt lat="49.36939" lon="0.89442">
        <ele>119</ele>
        <time>2016-03-01T05:24:11Z</time>
      </trkpt>
      <trkpt lat="49.37002" lon="0.8947">
        <ele>114</ele>
        <time>2016-03-01T05:26:11Z</time>
      </trkpt>
      <trkpt lat="49.36973" lon="0.89329">
        <ele>107</ele>
        <time>2016-03-01T05:28:11Z</time>
      </trkpt>
      <trkpt lat="49.36969" lon="0.89198">
        <ele>101</ele>
        <time>2016-03-01T05:30:11Z</time>
      </trkpt>
      <trkpt lat="49.37008" lon="0.89129">
        <ele>92</ele>
        <time>2016-03-01T05:32:11Z</time>
      </trkpt>
      <trkpt lat="49.37048" lon="0.89009">
        <ele>81</ele>
        <time>2016-03-01T05:34:11Z</time>
      </trkpt>
      <trkpt lat="49.37054" lon="0.88977">
        <ele>78</ele>
        <time>2016-03-01T05:36:11Z</time>
      </trkpt>
      <trkpt lat="49.37132" lon="0.88925">
        <ele>62</ele>
        <time>2016-03-01T05:38:11Z</time>
      </trkpt>
      <trkpt lat="49.37281" lon="0.88938">
        <ele>57</ele>
        <time>2016-03-01T05:40:11Z</time>
      </trkpt>
      <trkpt lat="49.37315" lon="0.89002">
        <ele>65</ele>
        <time>2016-03-01T05:42:11Z</time>
      </trkpt>
      <trkpt lat="49.37346" lon="0.89015">
        <ele>69</ele>
        <time>2016-03-01T05:44:11Z</time>
      </trkpt>
      <trkpt lat="49.37356" lon="0.88968">
        <ele>72</ele>
        <time>2016-03-01T05:46:11Z</time>
      </trkpt>
      <trkpt lat="49.37389" lon="0.88865">
        <ele>78</ele>
        <time>2016-03-01T05:48:11Z</time>
      </trkpt>
      <trkpt lat="49.37411" lon="0.88822">
        <ele>81</ele>
        <time>2016-03-01T05:50:11Z</time>
      </trkpt>
      <trkpt lat="49.37465" lon="0.88801">
        <ele>92</ele>
        <time>2016-03-01T05:52:11Z</time>
      </trkpt>
      <trkpt lat="49.37561" lon="0.88723">
        <ele>110</ele>
        <time>2016-03-01T05:54:11Z</time>
      </trkpt>
      <trkpt lat="49.37645" lon="0.88513">
        <ele>123</ele>
        <time>2016-03-01T05:56:11Z</time>
      </trkpt>
      <trkpt lat="49.37656" lon="0.88453">
        <ele>124</ele>
        <time>2016-03-01T05:58:11Z</time>
      </trkpt>
      <trkpt lat="49.3768" lon="0.88487">
        <ele>128</ele>
        <time>2016-03-01T06:00:11Z</time>
      </trkpt>
      <trkpt lat="49.37864" lon="0.88642">
        <ele>127</ele>
        <time>2016-03-01T06:02:11Z</time>
      </trkpt>
      <trkpt lat="49.38018" lon="0.88586">
        <ele>123</ele>
        <time>2016-03-01T06:04:11Z</time>
      </trkpt>
      <trkpt lat="49.38044" lon="0.88586">
        <ele>124</ele>
        <time>2016-03-01T06:06:11Z</time>
      </trkpt>
      <trkpt lat="49.38064" lon="0.8861">
        <ele>124</ele>
        <time>2016-03-01T06:08:11Z</time>
      </trkpt>
      <trkpt lat="49.38155" lon="0.88625">
        <ele>125</ele>
        <time>2016-03-01T06:10:11Z</time>
      </trkpt>
      <trkpt lat="49.38205" lon="0.88631">
        <ele>126</ele>
        <time>2016-03-01T06:12:11Z</time>
      </trkpt>
      <trkpt lat="49.38325" lon="0.88578">
        <ele>125</ele>
        <time>2016-03-01T06:14:11Z</time>
      </trkpt>
      <trkpt lat="49.38428" lon="0.88479">
        <ele>126</ele>
        <time>2016-03-01T06:16:11Z</time>
      </trkpt>
      <trkpt lat="49.38486" lon="0.88357">
        <ele>127</ele>
        <time>2016-03-01T06:18:11Z</time>
      </trkpt>
      <trkpt lat="49.38521" lon="0.88365">
        <ele>128</ele>
        <time>2016-03-01T06:20:11Z</time>
      </trkpt>
      <trkpt lat="49.38575" lon="0.88447">
        <ele>127</ele>
        <time>2016-03-01T06:22:11Z</time>
      </trkpt>
      <trkpt lat="49.38764" lon="0.88558">
        <ele>102</ele>
        <time>2016-03-01T06:24:11Z</time>
      </trkpt>
      <trkpt lat="49.38853" lon="0.88539">
        <ele>103</ele>
        <time>2016-03-01T06:26:11Z</time>
      </trkpt>
      <trkpt lat="49.38891" lon="0.8849">
        <ele>108</ele>
        <time>2016-03-01T06:28:11Z</time>
      </trkpt>
      <trkpt lat="49.39012" lon="0.88509">
        <ele>108</ele>
        <time>2016-03-01T06:30:11Z</time>
      </trkpt>
      <trkpt lat="49.39086" lon="0.88472">
        <ele>107</ele>
        <time>2016-03-01T06:32:11Z</time>
      </trkpt>
      <trkpt lat="49.39173" lon="0.88453">
        <ele>104</ele>
        <time>2016-03-01T06:34:11Z</time>
      </trkpt>
      <trkpt lat="49.39254" lon="0.88453">
        <ele>100</ele>
        <time>2016-03-01T06:36:11Z</time>
      </trkpt>
      <trkpt lat="49.39341" lon="0.88414">
        <ele>104</ele>
        <time>2016-03-01T06:38:11Z</time>
      </trkpt>
      <trkpt lat="49.39599" lon="0.88472">
        <ele>101</ele>
        <time>2016-03-01T06:40:11Z</time>
      </trkpt>
      <trkpt lat="49.39621" lon="0.8852">
        <ele>99</ele>
        <time>2016-03-01T06:42:11Z</time>
      </trkpt>
      <trkpt lat="49.39704" lon="0.88434">
        <ele>93</ele>
        <time>2016-03-01T06:44:11Z</time>
      </trkpt>
      <trkpt lat="49.39726" lon="0.88384">
        <ele>82</ele>
        <time>2016-03-01T06:46:11Z</time>
      </trkpt>
      <trkpt lat="49.39729" lon="0.88284">
        <ele>68</ele>
        <time>2016-03-01T06:48:11Z</time>
      </trkpt>
      <trkpt lat="49.39757" lon="0.88331">
        <ele>66</ele>
        <time>2016-03-01T06:50:11Z</time>
      </trkpt>
      <trkpt lat="49.39813" lon="0.88384">
        <ele>56</ele>
        <time>2016-03-01T06:52:11Z</time>
      </trkpt>
      <trkpt lat="49.39866" lon="0.8847">
        <ele>51</ele>
        <time>2016-03-01T06:54:11Z</time>
      </trkpt>
      <trkpt lat="49.39896" lon="0.88464">
        <ele>40</ele>
        <time>2016-03-01T06:56:11Z</time>
      </trkpt>
      <trkpt lat="49.39757" lon="0.88142">
        <ele>48</ele>
        <time>2016-03-01T06:58:11Z</time>
      </trkpt>
      <trkpt lat="49.3973" lon="0.8802">
        <ele>43</ele>
        <time>2016-03-01T07:00:11Z</time>
      </trkpt>
      <trkpt lat="49.39807" lon="0.88056">
        <ele>33</ele>
        <time>2016-03-01T07:02:11Z</time>
      </trkpt>
      <trkpt lat="49.39913" lon="0.87964">
        <ele>18</ele>
        <time>2016-03-01T07:04:11Z</time>
      </trkpt>
      <trkpt lat="49.39956" lon="0.8805">
        <ele>17</ele>
        <time>2016-03-01T07:06:11Z</time>
      </trkpt>
      <trkpt lat="49.40007" lon="0.88131">
        <ele>15</ele>
        <time>2016-03-01T07:08:11Z</time>
      </trkpt>
      <trkpt lat="49.40177" lon="0.87951">
        <ele>6</ele>
        <time>2016-03-01T07:10:11Z</time>
      </trkpt>
      <trkpt lat="49.40211" lon="0.87947">
        <ele>6</ele>
        <time>2016-03-01T07:12:11Z</time>
      </trkpt>
      <trkpt lat="49.40266" lon="0.88011">
        <ele>4</ele>
        <time>2016-03-01T07:14:11Z</time>
      </trkpt>
      <trkpt lat="49.40377" lon="0.87906">
        <ele>3</ele>
        <time>2016-03-01T07:16:11Z</time>
      </trkpt>
      <trkpt lat="49.40424" lon="0.87809">
        <ele>3</ele>
        <time>2016-03-01T07:18:11Z</time>
      </trkpt>
      <trkpt lat="49.40466" lon="0.87775">
        <ele>3</ele>
        <time>2016-03-01T07:20:11Z</time>
      </trkpt>
      <trkpt lat="49.40522" lon="0.87751">
        <ele>3</ele>
        <time>2016-03-01T07:22:11Z</time>
      </trkpt>
      <trkpt lat="49.40641" lon="0.87625">
        <ele>3</ele>
        <time>2016-03-01T07:24:11Z</time>
      </trkpt>
      <trkpt lat="49.40861" lon="0.87507">
        <ele>4</ele>
        <time>2016-03-01T07:26:11Z</time>
      </trkpt>
      <trkpt lat="49.41048" lon="0.8747">
        <ele>2</ele>
        <time>2016-03-01T07:28:11Z</time>
      </trkpt>
      <trkpt lat="49.41362" lon="0.87312">
        <ele>4</ele>
        <time>2016-03-01T07:30:11Z</time>
      </trkpt>
      <trkpt lat="49.41378" lon="0.87251">
        <ele>4</ele>
        <time>2016-03-01T07:32:11Z</time>
      </trkpt>
      <trkpt lat="49.41354" lon="0.87123">
        <ele>3</ele>
        <time>2016-03-01T07:34:11Z</time>
      </trkpt>
      <trkpt lat="49.41334" lon="0.86717">
        <ele>1</ele>
        <time>2016-03-01T07:36:11Z</time>
      </trkpt>
      <trkpt lat="49.41322" lon="0.86644">
        <ele>2</ele>
        <time>2016-03-01T07:38:11Z</time>
      </trkpt>
      <trkpt lat="49.41281" lon="0.86515">
        <ele>4</ele>
        <time>2016-03-01T07:40:11Z</time>
      </trkpt>
      <trkpt lat="49.41209" lon="0.86237">
        <ele>4</ele>
        <time>2016-03-01T07:42:11Z</time>
      </trkpt>
      <trkpt lat="49.412" lon="0.85928">
        <ele>3</ele>
        <time>2016-03-01T07:44:11Z</time>
      </trkpt>
      <trkpt lat="49.41207" lon="0.85816">
        <ele>6</ele>
        <time>2016-03-01T07:46:11Z</time>
      </trkpt>
      <trkpt lat="49.41241" lon="0.85608">
        <ele>13</ele>
        <time>2016-03-01T07:48:11Z</time>
      </trkpt>
      <trkpt lat="49.41228" lon="0.85464">
        <ele>18</ele>
        <time>2016-03-01T07:50:11Z</time>
      </trkpt>
      <trkpt lat="49.41265" lon="0.85395">
        <ele>21</ele>
        <time>2016-03-01T07:52:11Z</time>
      </trkpt>
      <trkpt lat="49.41103" lon="0.85174">
        <ele>19</ele>
        <time>2016-03-01T07:54:11Z</time>
      </trkpt>
      <trkpt lat="49.4105" lon="0.85065">
        <ele>17</ele>
        <time>2016-03-01T07:56:11Z</time>
      </trkpt>
      <trkpt lat="49.41025" lon="0.85046">
        <ele>16</ele>
        <time>2016-03-01T07:58:11Z</time>
      </trkpt>
      <trkpt lat="49.41182" lon="0.84642">
        <ele>13</ele>
        <time>2016-03-01T08:00:11Z</time>
      </trkpt>
      <trkpt lat="49.41157" lon="0.84623">
        <ele>13</ele>
        <time>2016-03-01T08:02:11Z</time>
      </trkpt>
    </trkseg>
  </trk>
</gpx>